Back to catalog

CZ-6A DEB

AlivePO
NORAD 61803·DEBRIS·🇨🇳 China

Launched Aug 6, 2024 from Taiyuan Satellite Launch Center

Loading…

Next Passes (next 24 hours)

TLE

FreshSource: Space-Track

Epoch: Sep 14, 2026, 10:57 UTC

1 61803U 24140ABT 26257.45658342  .00000390  00000-0  18707-3 0  9996
2 61803  88.9772 263.5251 0064333 251.5823 107.8363 14.16069842104891

Track CZ-6A DEB in real time with AllMySat

Download on the App Store